Harlingen, TX

5:04 PM CST on November 23, 2017 (GMT -0600)
Valley International

Weather History for KHRL - January, 2013

Change the Weather History Date:

Friday, January 18, 2013

  Actual Average Record
Temperature  
Mean Temperature 54 °F 60 °F  
Max Temperature 70 °F 71 °F 90 °F (1938)
Min Temperature 38 °F 50 °F 23 °F (1896)
Degree Days  
Heating Degree Days 11 6  
Month to date heating degree days 169 124  
Since 1 July heating degree days 282 372  
Cooling Degree Days 0 2  
Month to date cooling degree days 16 36  
Year to date cooling degree days 16 36  
Growing Degree Days 4 (Base 50)    
Moisture  
Dew Point 42 °F    
Average Humidity 64    
Maximum Humidity 92    
Minimum Humidity 36    
Precipitation  
Precipitation 0.00 in 0.04 in 1.03 in (1978)
Month to date precipitation 2.54 0.48  
Year to date precipitation 2.54 0.48  
Sea Level Pressure  
Sea Level Pressure 30.40 in    
Wind  
Wind Speed 5 mph (NE)    
Max Wind Speed 12 mph    
Max Gust Speed 16 mph    
Visibility 10 miles    
Events      
T = Trace of Precipitation, MM = Missing Value Source: NWS Daily Summary

Daily Weather History Graph

Daily Weather History Graph

Search for Another Location

Airport or City:

Trip Planner

Search our weather history database for the weather conditions in past years. The results will help you decide how hot, cold, wet, or windy it might be!

Date:

Astronomy

Jan. 18, 2013 Rise Set
Actual Time 7:19 AM CST 6:03 PM CST
Civil Twilight 6:54 AM CST 6:27 PM CST
Nautical Twilight 6:26 AM CST 6:56 PM CST
Astronomical Twilight 5:58 AM CST 7:23 PM CST
Moon 11:46 AM CST (1/18) 12:09 AM CST (1/18)
Length of Visible Light 11h 33m
Length of Day
10h 43m
Waxing Crescent, 47% of the Moon is Illuminated
Jan 18
Waxing Crescent
Jan 18
First Quarter
Jan 26
Full
Feb 3
Last Quarter
Feb 10
New

Hourly Weather History & Observations

Time (CST) Temp. Windchill Dew Point Humidity Pressure Visibility Wind Dir Wind Speed Gust Speed Precip Events Conditions
12:52 AM 46.9 °F - 41.0 °F 80% 30.44 in 10.0 mi North 4.6 mph - N/A   Clear
1:52 AM 46.0 °F - 41.0 °F 83% 30.44 in 10.0 mi Calm Calm - N/A   Clear
2:52 AM 44.1 °F - 39.9 °F 85% 30.44 in 10.0 mi Calm Calm - N/A   Clear
3:52 AM 42.1 °F 38.4 °F 39.0 °F 89% 30.44 in 10.0 mi WNW 5.8 mph - N/A   Clear
4:52 AM 39.9 °F 35.8 °F 37.0 °F 89% 30.44 in 10.0 mi NW 5.8 mph - N/A   Clear
5:52 AM 39.0 °F 34.0 °F 37.0 °F 93% 30.44 in 10.0 mi WNW 6.9 mph - N/A   Clear
6:52 AM 39.0 °F 34.8 °F 36.0 °F 89% 30.45 in 10.0 mi NW 5.8 mph - N/A   Clear
7:52 AM 41.0 °F 37.1 °F 37.9 °F 89% 30.46 in 10.0 mi NW 5.8 mph - N/A   Clear
8:52 AM 48.0 °F - 41.0 °F 77% 30.48 in 10.0 mi NNW 5.8 mph - N/A   Clear
9:52 AM 55.9 °F - 44.1 °F 64% 30.49 in 10.0 mi NNW 4.6 mph - N/A   Clear
10:52 AM 63.0 °F - 45.0 °F 52% 30.48 in 10.0 mi Variable 3.5 mph - N/A   Clear
11:52 AM 66.0 °F - 42.1 °F 42% 30.44 in 10.0 mi Variable 3.5 mph - N/A   Clear
12:52 PM 68.0 °F - 42.1 °F 39% 30.40 in 10.0 mi NNE 6.9 mph - N/A   Scattered Clouds
1:52 PM 66.9 °F - 41.0 °F 39% 30.36 in 10.0 mi Calm Calm - N/A   Clear
2:52 PM 69.1 °F - 41.0 °F 36% 30.34 in 10.0 mi ENE 5.8 mph - N/A   Clear
2:59 PM 69.8 °F - 39.2 °F 33% 30.34 in 10.0 mi ENE 5.8 mph - N/A   Scattered Clouds
3:52 PM 69.1 °F - 41.0 °F 36% 30.33 in 10.0 mi ESE 10.4 mph 16.1 mph N/A   Scattered Clouds
4:52 PM 64.9 °F - 42.1 °F 43% 30.33 in 10.0 mi ENE 6.9 mph - N/A   Clear
5:52 PM 62.1 °F - 45.0 °F 53% 30.34 in 10.0 mi East 9.2 mph - N/A   Clear
6:52 PM 57.9 °F - 46.0 °F 65% 30.34 in 10.0 mi East 8.1 mph - N/A   Clear
7:52 PM 55.9 °F - 46.9 °F 72% 30.36 in 10.0 mi East 6.9 mph - N/A   Clear
8:52 PM 54.0 °F - 46.9 °F 77% 30.36 in 10.0 mi East 6.9 mph - N/A   Clear
9:52 PM 51.8 °F - 46.4 °F 82% 30.35 in 10.0 mi ESE 3.5 mph - N/A   Clear
10:52 PM 51.1 °F - 46.9 °F 86% 30.34 in 10.0 mi SE 4.6 mph - N/A   Clear
11:52 PM 51.1 °F - 46.9 °F 86% 30.31 in 10.0 mi ESE 3.5 mph - N/A   Clear